Terminal Aerodrome Forecast
Issued by NWS Flagstaff, AZ

Home | Current Version | Previous Version | Text Only | Print | Product List | Glossary On
Versions: 1 2 3 4 5 6 7 8 9 10 11 12 13
000
FTUS45 KFGZ 180500
TAFINW
TAF
KINW 180535Z 1806/1906 VRB05KT P6SM BKN250
     FM181800 19019G27KT P6SM OVC150
     FM190100 20011KT P6SM BKN080=

USA.gov is the U.S. government's official web portal to all federal, state and local government web resources and services.